| time (UTC) | temp F | wind direction | speed MPH | gust MPH | rain 1hr in | rain 24hr in | rain mn in | humidity % | barometer mb |
| 20260510001551 | 54 | 203 | 0.0 | 2.0 | 0.00 | 0.43 | 0.00 | 94 | 1008.1 |
| 20260510000549 | 54 | 225 | 2.0 | 4.0 | 0.00 | 0.43 | 0.00 | 95 | 1008.4 |
| 20260509235546 | 54 | 225 | 3.0 | 4.0 | 0.00 | 0.43 | 0.43 | 95 | 1008.9 |
| 20260509234544 | 54 | 203 | 1.0 | 4.0 | 0.00 | 0.43 | 0.43 | 95 | 1008.8 |
| 20260509233541 | 55 | 230 | 2.0 | 4.0 | 0.00 | 0.43 | 0.43 | 95 | 1008.8 |
| 20260509232539 | 55 | 229 | 3.0 | 4.0 | 0.00 | 0.43 | 0.43 | 95 | 1008.8 |
| 20260509231536 | 55 | 206 | 2.0 | 4.0 | 0.00 | 0.43 | 0.43 | 95 | 1008.9 |
| 20260509230533 | 55 | 203 | 2.0 | 4.0 | 0.00 | 0.43 | 0.43 | 96 | 1008.9 |
| 20260509225531 | 55 | 232 | 2.0 | 4.0 | 0.00 | 0.43 | 0.43 | 96 | 1009.0 |
| 20260509224528 | 55 | 237 | 2.0 | 4.0 | 0.00 | 0.43 | 0.43 | 96 | 1009.0 |
| 20260509223525 | 55 | 170 | 2.0 | 4.0 | 0.00 | 0.43 | 0.43 | 96 | 1009.0 |
| 20260509222523 | 55 | 226 | 1.0 | 4.0 | 0.00 | 0.43 | 0.43 | 96 | 1008.9 |
| 20260509221520 | 55 | 212 | 2.0 | 4.0 | 0.00 | 0.43 | 0.43 | 96 | 1008.9 |
| 20260509220518 | 55 | 206 | 2.0 | 4.0 | 0.00 | 0.43 | 0.43 | 96 | 1008.9 |
| 20260509215515 | 55 | 195 | 1.0 | 4.0 | 0.00 | 0.43 | 0.43 | 96 | 1008.8 |
| 20260509214612 | 55 | 212 | 0.0 | 4.0 | 0.00 | 0.43 | 0.43 | 96 | 1008.9 |
| 20260509213610 | 55 | 180 | 1.0 | 2.0 | 0.00 | 0.43 | 0.43 | 96 | 1008.8 |
| 20260509212607 | 55 | 232 | 1.0 | 4.0 | 0.00 | 0.43 | 0.43 | 96 | 1008.7 |
| 20260509211605 | 55 | 235 | 2.0 | 4.0 | 0.00 | 0.43 | 0.43 | 97 | 1008.8 |
| 20260509210602 | 55 | 241 | 2.0 | 4.0 | 0.00 | 0.43 | 0.43 | 97 | 1008.7 |
| 20260509205559 | 55 | 223 | 1.0 | 4.0 | 0.00 | 0.43 | 0.43 | 97 | 1008.8 |
| 20260509204557 | 55 | 179 | 1.0 | 2.0 | 0.00 | 0.43 | 0.43 | 97 | 1008.7 |
| 20260509203554 | 55 | 194 | 2.0 | 2.0 | 0.00 | 0.43 | 0.43 | 96 | 1008.5 |
| 20260509202552 | 56 | 116 | 1.0 | 2.0 | 0.00 | 0.43 | 0.43 | 96 | 1008.3 |
| 20260509201549 | 55 | 0.0 | 0.0 | 0.00 | 0.43 | 0.43 | 96 | 1008.1 | |
| 20260509200546 | 56 | 0.0 | 2.0 | 0.00 | 0.43 | 0.43 | 96 | 1008.0 | |
| 20260509195544 | 56 | 113 | 0.0 | 2.0 | 0.00 | 0.43 | 0.43 | 96 | 1007.8 |
| 20260509194541 | 56 | 0.0 | 2.0 | 0.00 | 0.43 | 0.43 | 96 | 1007.7 | |
| 20260509193539 | 56 | 140 | 1.0 | 2.0 | 0.00 | 0.43 | 0.43 | 96 | 1007.6 |
| 20260509192536 | 56 | 136 | 2.0 | 4.0 | 0.00 | 0.43 | 0.43 | 96 | 1007.5 |
| 20260509191533 | 56 | 148 | 2.0 | 4.0 | 0.00 | 0.43 | 0.43 | 96 | 1007.4 |
| 20260509190531 | 56 | 128 | 1.0 | 4.0 | 0.00 | 0.43 | 0.43 | 95 | 1007.0 |
| 20260509185528 | 56 | 102 | 2.0 | 4.0 | 0.00 | 0.43 | 0.43 | 95 | 1006.9 |
| 20260509184526 | 57 | 93 | 1.0 | 2.0 | 0.00 | 0.43 | 0.43 | 94 | 1006.6 |
| 20260509183523 | 57 | 37 | 1.0 | 4.0 | 0.01 | 0.43 | 0.43 | 93 | 1006.5 |
| 20260509182520 | 57 | 130 | 2.0 | 4.0 | 0.01 | 0.43 | 0.43 | 91 | 1006.5 |
| 20260509181518 | 57 | 90 | 0.0 | 2.0 | 0.04 | 0.43 | 0.43 | 89 | 1006.0 |
| 20260509180515 | 57 | 235 | 1.0 | 4.0 | 0.05 | 0.43 | 0.43 | 88 | 1005.8 |
| 20260509175613 | 56 | 235 | 2.0 | 6.0 | 0.06 | 0.43 | 0.43 | 89 | 1005.7 |
| 20260509174610 | 55 | 259 | 3.0 | 9.0 | 0.08 | 0.43 | 0.43 | 93 | 1005.5 |
| 20260509173607 | 55 | 295 | 2.0 | 9.0 | 0.11 | 0.41 | 0.41 | 95 | 1005.6 |
| 20260509172605 | 55 | 270 | 4.0 | 9.0 | 0.17 | 0.41 | 0.41 | 96 | 1005.5 |
| 20260509171602 | 56 | 275 | 4.0 | 11.0 | 0.15 | 0.39 | 0.39 | 96 | 1006.0 |
| 20260509170600 | 56 | 289 | 5.0 | 8.0 | 0.15 | 0.38 | 0.38 | 96 | 1006.3 |
| 20260509165557 | 56 | 297 | 3.0 | 7.0 | 0.15 | 0.37 | 0.37 | 97 | 1006.8 |
| 20260509164554 | 56 | 287 | 2.0 | 4.0 | 0.15 | 0.34 | 0.34 | 96 | 1007.3 |
| 20260509163552 | 56 | 293 | 0.0 | 2.0 | 0.17 | 0.31 | 0.31 | 96 | 1007.7 |
| 20260509162549 | 56 | 158 | 0.0 | 2.0 | 0.13 | 0.25 | 0.25 | 96 | 1008.1 |
| 20260509161547 | 57 | 136 | 1.0 | 2.0 | 0.13 | 0.24 | 0.24 | 96 | 1008.4 |
| 20260509160544 | 57 | 122 | 1.0 | 2.0 | 0.13 | 0.22 | 0.22 | 96 | 1008.5 |
| 20260509155541 | 57 | 123 | 1.0 | 4.0 | 0.13 | 0.21 | 0.21 | 95 | 1008.7 |
| 20260509154539 | 57 | 145 | 3.0 | 7.0 | 0.12 | 0.19 | 0.19 | 94 | 1008.7 |
| 20260509153536 | 57 | 121 | 4.0 | 8.0 | 0.09 | 0.14 | 0.14 | 93 | 1008.7 |
| 20260509152533 | 57 | 113 | 3.0 | 8.0 | 0.09 | 0.12 | 0.12 | 93 | 1008.1 |
| 20260509151531 | 57 | 272 | 1.0 | 4.0 | 0.09 | 0.11 | 0.11 | 93 | 1006.5 |
| 20260509150528 | 57 | 313 | 3.0 | 6.0 | 0.09 | 0.09 | 0.09 | 92 | 1006.0 |
| 20260509145526 | 57 | 307 | 6.0 | 9.0 | 0.08 | 0.08 | 0.08 | 92 | 1006.2 |
| 20260509144523 | 57 | 297 | 5.0 | 8.0 | 0.07 | 0.07 | 0.07 | 92 | 1006.1 |
| 20260509143520 | 57 | 348 | 7.0 | 14.0 | 0.05 | 0.05 | 0.05 | 90 | 1006.5 |
| 20260509142518 | 58 | 331 | 6.0 | 11.0 | 0.02 | 0.02 | 0.02 | 88 | 1007.1 |
| 20260509141515 | 59 | 19 | 6.0 | 11.0 | 0.01 | 0.01 | 0.01 | 86 | 1007.4 |
| 20260509140613 | 60 | 354 | 5.0 | 13.0 | 0.00 | 0.00 | 0.00 | 82 | 1007.8 |
| 20260509135610 | 61 | 36 | 7.0 | 16.0 | 0.00 | 0.00 | 0.00 | 77 | 1007.9 |
| 20260509134607 | 62 | 2 | 4.0 | 8.0 | 0.00 | 0.00 | 0.00 | 74 | 1008.1 |
| 20260509133605 | 62 | 344 | 6.0 | 11.0 | 0.00 | 0.00 | 0.00 | 75 | 1008.1 |
| 20260509132602 | 62 | 1 | 4.0 | 8.0 | 0.00 | 0.00 | 0.00 | 77 | 1008.1 |
| 20260509131600 | 62 | 16 | 3.0 | 7.0 | 0.00 | 0.00 | 0.00 | 78 | 1008.0 |
| 20260509130557 | 62 | 299 | 3.0 | 8.0 | 0.00 | 0.00 | 0.00 | 77 | 1007.6 |
| 20260509125554 | 62 | 12 | 4.0 | 11.0 | 0.00 | 0.00 | 0.00 | 75 | 1007.4 |
| 20260509124552 | 62 | 350 | 6.0 | 13.0 | 0.00 | 0.00 | 0.00 | 73 | 1007.2 |
| 20260509123549 | 62 | 358 | 9.0 | 15.0 | 0.00 | 0.00 | 0.00 | 72 | 1007.3 |
| 20260509122546 | 63 | 22 | 6.0 | 11.0 | 0.00 | 0.00 | 0.00 | 70 | 1007.8 |
| 20260509121544 | 62 | 29 | 5.0 | 11.0 | 0.00 | 0.00 | 0.00 | 71 | 1008.1 |
| 20260509120541 | 62 | 27 | 8.0 | 17.0 | 0.00 | 0.00 | 0.00 | 72 | 1008.5 |
| 20260509115539 | 63 | 39 | 5.0 | 11.0 | 0.00 | 0.00 | 0.00 | 73 | 1009.0 |
| 20260509114536 | 63 | 355 | 5.0 | 9.0 | 0.00 | 0.00 | 0.00 | 72 | 1009.0 |
| 20260509113533 | 63 | 32 | 5.0 | 11.0 | 0.00 | 0.00 | 0.00 | 75 | 1009.1 |
| 20260509112531 | 62 | 4 | 5.0 | 13.0 | 0.00 | 0.00 | 0.00 | 78 | 1009.4 |
| 20260509111528 | 62 | 15 | 2.0 | 9.0 | 0.00 | 0.00 | 0.00 | 82 | 1009.3 |
| 20260509110526 | 62 | 52 | 2.0 | 6.0 | 0.00 | 0.00 | 0.00 | 80 | 1009.0 |
| 20260509105524 | 62 | 50 | 5.0 | 11.0 | 0.00 | 0.00 | 0.00 | 77 | 1009.1 |
| 20260509104521 | 63 | 22 | 4.0 | 11.0 | 0.00 | 0.00 | 0.00 | 77 | 1009.1 |
| 20260509103519 | 63 | 32 | 3.0 | 7.0 | 0.00 | 0.00 | 0.00 | 76 | 1009.3 |
| 20260509102516 | 63 | 30 | 5.0 | 11.0 | 0.00 | 0.00 | 0.00 | 76 | 1009.2 |
| 20260509101614 | 63 | 342 | 6.0 | 11.0 | 0.00 | 0.00 | 0.00 | 75 | 1009.0 |
| 20260509100612 | 63 | 23 | 6.0 | 13.0 | 0.00 | 0.00 | 0.00 | 78 | 1009.1 |
| 20260509095609 | 62 | 12 | 6.0 | 11.0 | 0.00 | 0.00 | 0.00 | 77 | 1009.0 |
| 20260509094607 | 62 | 11 | 6.0 | 11.0 | 0.00 | 0.00 | 0.00 | 78 | 1008.9 |
| 20260509093604 | 63 | 328 | 3.0 | 8.0 | 0.00 | 0.00 | 0.00 | 77 | 1008.7 |
| 20260509092602 | 62 | 13 | 6.0 | 11.0 | 0.00 | 0.00 | 0.00 | 78 | 1008.7 |
| 20260509091559 | 62 | 315 | 5.0 | 11.0 | 0.00 | 0.00 | 0.00 | 78 | 1008.8 |
| 20260509090557 | 61 | 345 | 6.0 | 11.0 | 0.00 | 0.00 | 0.00 | 79 | 1008.6 |
| 20260509085554 | 61 | 339 | 6.0 | 11.0 | 0.00 | 0.00 | 0.00 | 78 | 1008.5 |
| 20260509084551 | 61 | 7 | 6.0 | 13.0 | 0.00 | 0.00 | 0.00 | 79 | 1008.6 |
| 20260509083549 | 61 | 299 | 4.0 | 11.0 | 0.00 | 0.00 | 0.00 | 79 | 1008.6 |
| 20260509082546 | 62 | 10 | 4.0 | 13.0 | 0.00 | 0.00 | 0.00 | 77 | 1008.5 |
| 20260509081544 | 62 | 352 | 5.0 | 9.0 | 0.00 | 0.00 | 0.00 | 77 | 1008.1 |
| 20260509080541 | 61 | 330 | 8.0 | 14.0 | 0.00 | 0.00 | 0.00 | 78 | 1008.1 |
| 20260509075538 | 60 | 325 | 8.0 | 14.0 | 0.00 | 0.00 | 0.00 | 80 | 1008.2 |
| 20260509074536 | 60 | 4 | 7.0 | 14.0 | 0.00 | 0.00 | 0.00 | 81 | 1008.4 |
| 20260509073533 | 59 | 356 | 5.0 | 11.0 | 0.00 | 0.00 | 0.00 | 83 | 1008.5 |
| 20260509072531 | 59 | 346 | 7.0 | 11.0 | 0.00 | 0.00 | 0.00 | 84 | 1008.6 |
| 20260509071528 | 59 | 343 | 6.0 | 11.0 | 0.00 | 0.00 | 0.00 | 85 | 1008.8 |
| 20260509070526 | 59 | 340 | 6.0 | 11.0 | 0.00 | 0.00 | 0.00 | 85 | 1008.9 |
| 20260509065523 | 59 | 359 | 4.0 | 11.0 | 0.00 | 0.00 | 0.00 | 85 | 1008.9 |
| 20260509064520 | 59 | 329 | 5.0 | 11.0 | 0.00 | 0.00 | 0.00 | 85 | 1008.9 |
| 20260509063518 | 59 | 297 | 4.0 | 11.0 | 0.00 | 0.00 | 0.00 | 85 | 1008.9 |
| 20260509062515 | 58 | 296 | 4.0 | 8.0 | 0.00 | 0.00 | 0.00 | 86 | 1009.0 |
| 20260509061613 | 58 | 327 | 4.0 | 7.0 | 0.00 | 0.00 | 0.00 | 86 | 1009.2 |
| 20260509060610 | 58 | 341 | 3.0 | 8.0 | 0.00 | 0.00 | 0.00 | 85 | 1009.3 |
| 20260509055607 | 58 | 300 | 3.0 | 4.0 | 0.00 | 0.00 | 0.00 | 84 | 1009.1 |
| 20260509054605 | 58 | 305 | 5.0 | 9.0 | 0.00 | 0.00 | 0.00 | 84 | 1009.0 |
| 20260509053602 | 58 | 315 | 5.0 | 8.0 | 0.00 | 0.00 | 0.00 | 84 | 1009.0 |
| 20260509052600 | 58 | 292 | 2.0 | 4.0 | 0.00 | 0.00 | 0.00 | 84 | 1009.1 |
| 20260509051557 | 58 | 347 | 3.0 | 6.0 | 0.00 | 0.00 | 0.00 | 85 | 1009.0 |
| 20260509050554 | 58 | 339 | 2.0 | 4.0 | 0.00 | 0.00 | 0.00 | 85 | 1009.2 |
| 20260509045552 | 58 | 340 | 2.0 | 6.0 | 0.00 | 0.00 | 0.00 | 85 | 1009.1 |
| 20260509044549 | 58 | 347 | 3.0 | 6.0 | 0.00 | 0.00 | 0.00 | 85 | 1009.1 |
| 20260509043547 | 58 | 339 | 3.0 | 6.0 | 0.00 | 0.00 | 0.00 | 85 | 1009.3 |
| 20260509042544 | 58 | 317 | 1.0 | 2.0 | 0.00 | 0.00 | 0.00 | 85 | 1009.1 |
| 20260509041541 | 58 | 298 | 3.0 | 6.0 | 0.00 | 0.00 | 0.00 | 85 | 1009.2 |
| 20260509040539 | 58 | 313 | 1.0 | 4.0 | 0.00 | 0.00 | 0.00 | 85 | 1009.1 |
| 20260509035536 | 58 | 301 | 3.0 | 6.0 | 0.00 | 0.00 | 0.00 | 85 | 1009.2 |
| 20260509034534 | 58 | 358 | 2.0 | 4.0 | 0.00 | 0.00 | 0.00 | 85 | 1009.3 |
| 20260509033531 | 58 | 314 | 3.0 | 6.0 | 0.00 | 0.00 | 0.00 | 85 | 1009.2 |
| 20260509032528 | 58 | 343 | 2.0 | 4.0 | 0.00 | 0.00 | 0.00 | 85 | 1009.2 |
| 20260509031526 | 58 | 313 | 3.0 | 6.0 | 0.00 | 0.00 | 0.00 | 85 | 1009.3 |
| 20260509030523 | 58 | 318 | 1.0 | 4.0 | 0.00 | 0.00 | 0.00 | 85 | 1009.3 |
| 20260509025521 | 58 | 318 | 3.0 | 6.0 | 0.00 | 0.00 | 0.00 | 85 | 1009.3 |
| 20260509024518 | 58 | 294 | 3.0 | 6.0 | 0.00 | 0.00 | 0.00 | 85 | 1009.4 |
| 20260509023515 | 58 | 297 | 4.0 | 6.0 | 0.00 | 0.00 | 0.00 | 85 | 1009.4 |
| 20260509022613 | 58 | 341 | 2.0 | 4.0 | 0.00 | 0.00 | 0.00 | 85 | 1009.5 |
| 20260509021610 | 58 | 319 | 4.0 | 7.0 | 0.00 | 0.00 | 0.00 | 85 | 1009.4 |
| 20260509020608 | 58 | 288 | 3.0 | 4.0 | 0.00 | 0.00 | 0.00 | 86 | 1009.8 |
| 20260509015605 | 58 | 313 | 1.0 | 4.0 | 0.00 | 0.00 | 0.00 | 86 | 1009.8 |
| 20260509014603 | 58 | 297 | 3.0 | 6.0 | 0.00 | 0.00 | 0.00 | 86 | 1010.0 |
| 20260509013600 | 58 | 275 | 2.0 | 4.0 | 0.00 | 0.00 | 0.00 | 86 | 1010.0 |
| 20260509012557 | 58 | 286 | 2.0 | 4.0 | 0.00 | 0.00 | 0.00 | 85 | 1010.1 |
| 20260509011555 | 58 | 297 | 3.0 | 6.0 | 0.00 | 0.00 | 0.00 | 85 | 1010.1 |
| 20260509010552 | 58 | 311 | 4.0 | 6.0 | 0.00 | 0.00 | 0.00 | 85 | 1010.3 |
| 20260509005549 | 58 | 278 | 3.0 | 4.0 | 0.00 | 0.00 | 0.00 | 84 | 1010.3 |
| 20260509004547 | 58 | 316 | 3.0 | 6.0 | 0.00 | 0.00 | 0.00 | 84 | 1010.4 |
| 20260509003544 | 58 | 301 | 2.0 | 4.0 | 0.00 | 0.00 | 0.00 | 84 | 1010.6 |
| 20260509002542 | 58 | 305 | 2.0 | 4.0 | 0.00 | 0.00 | 0.00 | 83 | 1010.6 |